User: anonymous   Login
Location: SAPM � Hemmingford
(45.0500°N, 73.5833°W)
Time: 03:11:20
(UTC-04:00)
Language:

Cosmos 1603 - Orbit

View from above orbital plane
View from above orbital plane
View from above satellite
View from above satellite

Ground track
Ground track

The orbit data is extracted from the following two-line orbital elements,

1 15333U 84106A   15143.20422330 -.00000039  00000-0  45262-5 0  9991
2 15333 071.0285 235.3033 0022103 277.5175 104.3527 14.14007006581404
Epoch (UTC): 23 May 2015 04:54:04
Eccentricity: 0.0022103
inclination: 71.0285°
perigee height: 830 km
apogee height: 861 km
right ascension of ascending node: 235.3033°
argument of perigee: 277.5175°
revolutions per day: 14.14007006
mean anomaly at epoch: 104.3527°
orbit number at epoch: 58140

The dashed part of the orbit path shows where the satellite is in the earth's shadow,  

DLR